College Station, TX

11:17 AM CDT on July 27, 2017 (GMT -0500)
Easterwood

Weather History for KCLL - November, 2012

Change the Weather History Date:

Saturday, November 10, 2012

  Actual Average Record
Temperature  
Mean Temperature 74 °F 63 °F  
Max Temperature 83 °F 73 °F 87 °F (1911)
Min Temperature 64 °F 53 °F 33 °F (1948)
Degree Days  
Heating Degree Days 0 5  
Month to date heating degree days 3 38  
Since 1 July heating degree days 59 75  
Cooling Degree Days 9 3  
Month to date cooling degree days 56 33  
Year to date cooling degree days 3541 3045  
Growing Degree Days 23 (Base 50)    
Moisture  
Dew Point 62 °F    
Average Humidity 67    
Maximum Humidity 87    
Minimum Humidity 46    
Precipitation  
Precipitation 0.00 in 0.11 in 0.40 in (1985)
Month to date precipitation 0.03 1.13  
Year to date precipitation 36.95 34.74  
Sea Level Pressure  
Sea Level Pressure 29.98 in    
Wind  
Wind Speed 14 mph (SSE)    
Max Wind Speed 24 mph    
Max Gust Speed 33 mph    
Visibility 10 miles    
Events      
T = Trace of Precipitation, MM = Missing Value Source: NWS Daily Summary

Daily Weather History Graph

Daily Weather History Graph

Search for Another Location

Airport or City:

Trip Planner

Search our weather history database for the weather conditions in past years. The results will help you decide how hot, cold, wet, or windy it might be!

Date:

Astronomy

Nov. 10, 2012 Rise Set
Actual Time 6:47 AM CST 5:30 PM CST
Civil Twilight 6:22 AM CST 5:55 PM CST
Nautical Twilight 5:53 AM CST 6:24 PM CST
Astronomical Twilight 5:25 AM CST 6:53 PM CST
Moon 3:07 AM CST (11/10) 3:06 PM CST (11/10)
Length of Visible Light 11h 33m
Length of Day
10h 42m
Waning Crescent, 14% of the Moon is Illuminated
Nov 10
Waning Crescent
Nov 13
New
Nov 20
First Quarter
Nov 28
Full
Dec 6
Last Quarter

Hourly Weather History & Observations

Time (CST) Temp. Heat Index Dew Point Humidity Pressure Visibility Wind Dir Wind Speed Gust Speed Precip Events Conditions
12:53 AM 66.0 °F - 61.0 °F 84% 30.04 in 10.0 mi SSE 11.5 mph - N/A   Clear
1:53 AM 66.0 °F - 61.0 °F 84% 30.04 in 10.0 mi SSE 10.4 mph - N/A   Partly Cloudy
2:53 AM 64.9 °F - 61.0 °F 87% 30.02 in 10.0 mi SSE 8.1 mph - N/A   Partly Cloudy
3:53 AM 64.9 °F - 61.0 °F 87% 30.01 in 10.0 mi SSE 8.1 mph - N/A   Mostly Cloudy
4:53 AM 64.9 °F - 60.1 °F 84% 30.01 in 10.0 mi SSE 8.1 mph - N/A   Overcast
5:53 AM 64.0 °F - 60.1 °F 87% 30.02 in 10.0 mi SSE 6.9 mph - N/A   Clear
6:53 AM 64.0 °F - 60.1 °F 87% 30.03 in 10.0 mi SE 5.8 mph - N/A   Clear
7:53 AM 66.9 °F - 60.1 °F 79% 30.04 in 10.0 mi SE 9.2 mph - N/A   Clear
8:53 AM 72.0 °F - 60.1 °F 66% 30.05 in 10.0 mi SSE 15.0 mph - N/A   Clear
9:53 AM 77.0 °F - 61.0 °F 58% 30.04 in 10.0 mi South 16.1 mph 23.0 mph N/A   Partly Cloudy
10:53 AM 79.0 °F - 60.1 °F 52% 30.03 in 10.0 mi South 20.7 mph 28.8 mph N/A   Scattered Clouds
11:53 AM 81.0 °F 81.6 °F 60.1 °F 49% 30.00 in 10.0 mi SSE 19.6 mph 31.1 mph N/A   Scattered Clouds
12:53 PM 82.0 °F 82.4 °F 60.1 °F 47% 29.96 in 10.0 mi South 18.4 mph 24.2 mph N/A   Mostly Cloudy
1:53 PM 82.0 °F 82.1 °F 59.0 °F 45% 29.94 in 10.0 mi South 17.3 mph 26.5 mph N/A   Mostly Cloudy
2:53 PM 82.0 °F 82.4 °F 60.1 °F 47% 29.92 in 10.0 mi SSE 19.6 mph 26.5 mph N/A   Mostly Cloudy
3:53 PM 81.0 °F 81.3 °F 59.0 °F 47% 29.91 in 10.0 mi South 17.3 mph 29.9 mph N/A   Partly Cloudy
4:53 PM 79.0 °F - 61.0 °F 54% 29.91 in 10.0 mi SSE 17.3 mph 24.2 mph N/A   Mostly Cloudy
5:53 PM 77.0 °F - 63.0 °F 62% 29.92 in 10.0 mi SSE 16.1 mph 24.2 mph N/A   Mostly Cloudy
6:53 PM 75.9 °F - 63.0 °F 64% 29.93 in 10.0 mi SSE 12.7 mph 19.6 mph N/A   Clear
7:53 PM 75.0 °F - 64.0 °F 69% 29.94 in 10.0 mi SSE 17.3 mph 25.3 mph N/A   Clear
8:53 PM 73.9 °F - 64.0 °F 71% 29.93 in 10.0 mi SSE 16.1 mph 24.2 mph N/A   Clear
9:53 PM 73.4 °F - 64.4 °F 73% 29.94 in 10.0 mi SSE 20.7 mph 25.3 mph N/A   Clear
10:53 PM 73.0 °F - 66.0 °F 79% 29.93 in 10.0 mi SSE 17.3 mph 25.3 mph N/A   Clear
11:53 PM 73.0 °F - 66.9 °F 81% 29.90 in 10.0 mi SSE 17.3 mph 25.3 mph N/A   Clear